FENGYUN 1C DEB

Satellite information

Favourite Embed

Satellite Type and Status

DEBRISIN ORBIT

Key statistics

Satellite FENGYUN 1C DEB at a glance.

Uptime

9715

Days in orbit

Revolutions

≈ 14.1

Per day

Orbit

SSO

Sun Synchronous Orbit

Inclination

98.4

Latest

Satellite identification and parameters

Extended collection of information and parameters for FENGYUN 1C DEB.

Object identification

Identified? True

Debris? True

Object name: FENGYUN 1C DEB

International designator: 1999-025LB

Object number (NORAD): 29977

Object ID (CCSDS): 29977

Country: PEOPLES REPUBLIC OF CHINA (PRC)

Current information (Y/N): Y

RCS size: SMALL

Orbital parameters

Period: 102.484 minutes

Inclination: 98.3974 deg

SMA: 7254.356 km

Apoapsis: 969.375 km

Periapsis: 783.067 km

RAAN: 209.5543 deg

Eccentricy: 0.01284108

Argument of periapsis: 254.5911 deg

Mean anomaly: 133.7447 deg

Mean motion: 14.05091081 rev/day

Mean motion (dot): 0.00003044 rev/day2

B* drag term: 0.0017764194 1/REarth

Two-line elements (TLE)

Creation date: Dec. 14, 2025, 3:07 a.m.

Reference frame: TEME

Reference center: EARTH

Epoch: Dec. 13, 2025, 1:35 p.m. UTC

TLE line 0: 0 FENGYUN 1C DEB

TLE line 1: 1 29977U 99025LB 25347.56650839 .00003044 00000-0 17764-2 0 9990

TLE line 2: 2 29977 98.3974 209.5543 0128411 254.5911 133.7447 14.05091081963723

Live tracking on map

Real-time ground track for satellite FENGYUN 1C DEB.

In-orbit conjunctions

A list of the most updated potential collisions computed for object FENGYUN 1C DEB.

Target Orbit TCA Probability of collision Miss distance Type
SL-19 R/B SSO 2025-06-29 09:30:04 0.000308012 326.0 (m) ROCKET BODY
CZ-6A DEB LEO 2024-11-30 04:36:43 0.0001843206 484.0 (m) DEBRIS

Associated space launch

Chinese polar orbiting meteorological satellite

FENGYUN 1C DEB was lifted into orbit during the mission ‘Long March 4B | Feng Yun 1C’, on board a Long March 4B space rocket.

The launch took place on May 10, 1999, 1:33 a.m. from Launch Complex 7.

For more information about the launch, click the button.

Launch to space Long March 4B | Feng Yun 1C
Long March 4B | Feng Yun 1C

Agency: N/A

Status: Launch Successful

Launch date: May 10, 1999, 1:33 a.m. UTC

Rocket: Long March 4B

Launch pad: Launch Complex 7

Location: Taiyuan Satellite Launch Center, People's Republic of China

...

Latest news about this satellite

There are no fresh news available about this satellite. Check back as we update our databases every day.


Newsletter sign-up

Weekly statistics, charts and insights to help you stay on top of the space industry.